Time,TemperatureF,DewpointF,PressureIn,WindDirection,WindDirectionDegrees,WindSpeedMPH,WindSpeedGustMPH,Humidity,HourlyPrecipIn,Conditions,Clouds,dailyrainin,SoftwareType,DateUTC
2013-09-18 00:04:00,54.0,46.0,30.27,NE,48,0.0,0.0,74,0.00,,,0.40,,2013-09-18 04:04:00,
2013-09-18 00:14:00,54.0,46.0,30.27,NE,48,0.0,0.0,74,0.00,,,0.40,,2013-09-18 04:14:00,
2013-09-18 00:24:00,54.0,44.0,30.27,SE,128,0.0,0.0,69,0.00,,,0.40,,2013-09-18 04:24:00,
2013-09-18 00:54:00,56.0,42.0,30.26,ESE,104,3.0,0.0,60,0.00,,,0.00,,2013-09-18 04:54:00,
2013-09-18 01:13:00,56.0,42.0,30.26,ESE,113,2.0,0.0,60,0.00,,,0.00,,2013-09-18 05:13:00,
2013-09-18 01:23:00,56.0,42.0,30.26,ESE,113,2.0,0.0,60,0.00,,,0.00,,2013-09-18 05:23:00,
2013-09-18 01:53:00,53.0,46.0,30.26,SE,127,0.0,0.0,77,0.00,,,0.00,,2013-09-18 05:53:00,
2013-09-18 02:22:00,52.0,46.0,30.26,SE,127,0.0,0.0,79,0.00,,,0.00,,2013-09-18 06:22:00,
2013-09-18 02:33:00,52.0,46.0,30.26,SE,127,0.0,0.0,79,0.00,,,0.00,,2013-09-18 06:33:00,
2013-09-18 02:52:00,52.0,46.0,30.26,SE,127,0.0,0.0,79,0.00,,,0.00,,2013-09-18 06:52:00,
2013-09-18 03:12:00,51.0,45.0,30.25,SE,127,0.0,0.0,81,0.00,,,0.00,,2013-09-18 07:12:00,
2013-09-18 03:22:00,51.0,45.0,30.25,SE,127,0.0,0.0,81,0.00,,,0.00,,2013-09-18 07:22:00,
2013-09-18 03:52:00,51.0,47.0,30.25,SE,127,0.0,0.0,85,0.00,,,0.00,,2013-09-18 07:52:00,
2013-09-18 04:23:00,51.0,47.0,30.24,SE,127,0.0,0.0,86,0.00,,,0.00,,2013-09-18 08:23:00,
2013-09-18 04:52:00,51.0,48.0,30.24,SE,127,0.0,0.0,88,0.00,,,0.00,,2013-09-18 08:52:00,
2013-09-18 05:22:00,50.0,47.0,30.24,SE,127,0.0,0.0,90,0.00,,,0.00,,2013-09-18 09:22:00,
2013-09-18 05:53:00,49.0,47.0,30.24,SE,127,0.0,0.0,92,0.00,,,0.00,,2013-09-18 09:53:00,
2013-09-18 06:23:00,49.0,47.0,30.25,SE,127,0.0,0.0,94,0.00,,,0.00,,2013-09-18 10:23:00,
2013-09-18 06:53:00,49.0,47.0,30.25,SE,127,0.0,0.0,94,0.00,,,0.00,,2013-09-18 10:53:00,
2013-09-18 07:22:00,48.0,47.0,30.25,SE,127,0.0,0.0,96,0.00,,,0.00,,2013-09-18 11:22:00,
2013-09-18 07:52:00,48.0,47.0,30.26,SE,127,0.0,0.0,98,0.00,,,0.00,,2013-09-18 11:52:00,
2013-09-18 08:22:00,49.0,48.0,30.26,SE,127,0.0,0.0,98,0.00,,,0.00,,2013-09-18 12:22:00,